TimeCST,TemperatureF,Dew PointF,Humidity,Sea Level PressureIn,VisibilityMPH,Wind Direction,Wind SpeedMPH,Gust SpeedMPH,PrecipitationIn,Events,Conditions,WindDirDegrees,DateUTC
12:15 AM,15.8,6.8,68,30.08,10.0,West,12.7,-,N/A,,Clear,280,2014-02-23 06:15:00
12:35 AM,15.8,6.8,68,30.08,10.0,West,11.5,-,N/A,,Clear,280,2014-02-23 06:35:00
12:55 AM,14.0,5.0,67,30.08,10.0,West,10.4,-,N/A,,Clear,280,2014-02-23 06:55:00
1:15 AM,14.0,5.0,67,30.09,10.0,West,10.4,-,N/A,,Clear,280,2014-02-23 07:15:00
1:35 AM,14.0,5.0,67,30.09,10.0,WNW,8.1,-,N/A,,Clear,290,2014-02-23 07:35:00
1:55 AM,14.0,5.0,67,30.10,10.0,WNW,9.2,-,N/A,,Clear,290,2014-02-23 07:55:00
2:15 AM,14.0,5.0,67,30.08,10.0,WNW,10.4,-,N/A,,Clear,290,2014-02-23 08:15:00
2:35 AM,14.0,5.0,67,30.08,10.0,WNW,11.5,-,N/A,,Clear,290,2014-02-23 08:35:00
2:55 AM,14.0,5.0,67,30.09,10.0,West,10.4,-,N/A,,Clear,280,2014-02-23 08:55:00
3:15 AM,14.0,5.0,67,30.10,10.0,WNW,11.5,-,N/A,,Clear,290,2014-02-23 09:15:00
3:35 AM,14.0,5.0,67,30.10,10.0,West,10.4,-,N/A,,Clear,280,2014-02-23 09:35:00
3:55 AM,14.0,5.0,67,30.11,10.0,West,10.4,-,N/A,,Clear,280,2014-02-23 09:55:00
4:15 AM,14.0,5.0,67,30.12,10.0,West,9.2,-,N/A,,Clear,280,2014-02-23 10:15:00
4:35 AM,14.0,3.2,62,-9999,10.0,WNW,9.2,-,N/A,,Clear,290,2014-02-23 10:35:00
5:45 AM,12.2,1.4,62,30.15,10.0,WNW,6.9,-,N/A,,Clear,290,2014-02-23 11:45:00
6:45 AM,10.4,1.4,67,30.16,10.0,WNW,9.2,-,N/A,,Clear,290,2014-02-23 12:45:00
7:45 AM,12.2,1.4,62,30.17,10.0,WNW,9.2,-,N/A,,Clear,300,2014-02-23 13:45:00
8:45 AM,14.0,1.4,57,30.18,10.0,WNW,11.5,-,N/A,,Clear,300,2014-02-23 14:45:00
9:45 AM,15.8,3.2,58,30.19,10.0,WNW,12.7,-,N/A,,Clear,300,2014-02-23 15:45:00
10:45 AM,19.4,3.2,49,30.19,10.0,WNW,13.8,-,N/A,,Clear,290,2014-02-23 16:45:00
11:45 AM,19.4,3.2,49,30.20,10.0,West,11.5,-,N/A,,Clear,270,2014-02-23 17:45:00
12:45 PM,23.0,6.8,50,30.17,10.0,West,12.7,-,N/A,,Clear,270,2014-02-23 18:45:00
1:45 PM,23.0,6.8,50,30.16,10.0,West,15.0,-,N/A,,Clear,260,2014-02-23 19:45:00
2:45 PM,24.8,6.8,46,30.16,10.0,West,17.3,-,N/A,,Clear,270,2014-02-23 20:45:00
3:45 PM,24.8,6.8,46,30.15,10.0,West,17.3,24.2,N/A,,Clear,260,2014-02-23 21:45:00
4:45 PM,23.0,6.8,50,30.16,10.0,West,19.6,24.2,N/A,,Clear,270,2014-02-23 22:45:00
5:45 PM,19.4,6.8,58,30.17,10.0,West,16.1,19.6,N/A,,Clear,260,2014-02-23 23:45:00
6:45 PM,17.6,3.2,53,30.18,10.0,West,15.0,20.7,N/A,,Clear,270,2014-02-24 00:45:00
7:45 PM,17.6,3.2,53,30.18,10.0,West,15.0,19.6,N/A,,Clear,260,2014-02-24 01:45:00
8:15 PM,17.6,5.0,58,30.18,10.0,West,13.8,-,N/A,,Clear,270,2014-02-24 02:15:00
8:35 PM,17.6,5.0,58,30.19,10.0,West,13.8,17.3,N/A,,Clear,270,2014-02-24 02:35:00
8:45 PM,15.8,3.2,58,30.19,10.0,West,15.0,24.2,N/A,,Clear,270,2014-02-24 02:45:00
8:55 PM,15.8,5.0,62,30.19,10.0,West,13.8,-,N/A,,Clear,270,2014-02-24 02:55:00
9:15 PM,15.8,5.0,62,30.19,10.0,West,13.8,23.0,N/A,,Clear,270,2014-02-24 03:15:00
9:35 PM,14.0,3.2,62,30.20,10.0,WNW,13.8,19.6,N/A,,Clear,290,2014-02-24 03:35:00
9:55 PM,14.0,3.2,62,30.20,10.0,West,11.5,-,N/A,,Clear,280,2014-02-24 03:55:00
10:15 PM,14.0,3.2,62,30.20,10.0,West,11.5,-,N/A,,Clear,280,2014-02-24 04:15:00
10:35 PM,14.0,5.0,67,30.21,10.0,West,10.4,-,N/A,,Clear,270,2014-02-24 04:35:00
10:55 PM,14.0,5.0,67,30.20,10.0,WNW,8.1,-,N/A,,Clear,290,2014-02-24 04:55:00
11:15 PM,14.0,5.0,67,30.20,10.0,WNW,9.2,-,N/A,,Clear,290,2014-02-24 05:15:00
11:35 PM,14.0,5.0,67,30.20,10.0,WNW,10.4,-,N/A,,Clear,290,2014-02-24 05:35:00
11:55 PM,14.0,5.0,67,30.20,10.0,West,9.2,-,N/A,,Clear,280,2014-02-24 05:55:00